FENGYUN 1C DEB

Satellite information

Favourite Embed

Satellite Type and Status

DEBRISIN ORBIT

Key statistics

Satellite FENGYUN 1C DEB at a glance.

Uptime

9554

Days in orbit

Revolutions

≈ 14.4

Per day

Orbit

SSO

Sun Synchronous Orbit

Inclination

99.2

Latest

Satellite identification and parameters

Extended collection of information and parameters for FENGYUN 1C DEB.

Object identification

Identified? True

Debris? True

Object name: FENGYUN 1C DEB

International designator: 1999-025CBN

Object number (NORAD): 31656

Object ID (CCSDS): 31656

Country: PEOPLES REPUBLIC OF CHINA (PRC)

Current information (Y/N): Y

RCS size: SMALL

Orbital parameters

Period: 99.72 minutes

Inclination: 99.1796 deg

SMA: 7123.302 km

Apoapsis: 760.805 km

Periapsis: 729.529 km

RAAN: 162.6915 deg

Eccentricy: 0.0021953

Argument of periapsis: 161.5226 deg

Mean anomaly: 229.1977 deg

Mean motion: 14.44045009 rev/day

Mean motion (dot): 0.00003782 rev/day2

B* drag term: 0.0011163 1/REarth

Two-line elements (TLE)

Creation date: July 5, 2025, 10:56 p.m.

Reference frame: TEME

Reference center: EARTH

Epoch: July 5, 2025, 9:48 p.m. UTC

TLE line 0: 0 FENGYUN 1C DEB

TLE line 1: 1 31656U 99025CBN 25186.90902146 .00003782 00000-0 11163-2 0 9993

TLE line 2: 2 31656 99.1796 162.6915 0021953 161.5226 229.1977 14.44045009941762

Live tracking on map

Real-time ground track for satellite FENGYUN 1C DEB.

In-orbit conjunctions

A list of the most updated potential collisions computed for object FENGYUN 1C DEB.

Target Orbit TCA Probability of collision Miss distance Type
NOAA 16 DEB SSO 2024-11-14 11:21:19 0.0001847554 612.0 (m) DEBRIS
COSMOS 2298 DEB LEO 2024-11-13 06:07:56 0.0004001249 811.0 (m) DEBRIS
COSMOS 1125 LEO 2024-08-06 06:59:26 0.0001034716 880.0 (m) PAYLOAD

Associated space launch

Chinese polar orbiting meteorological satellite

FENGYUN 1C DEB was lifted into orbit during the mission ‘Long March 4B | Feng Yun 1C’, on board a Long March 4B space rocket.

The launch took place on May 10, 1999, 1:33 a.m. from Launch Complex 7.

For more information about the launch, click the button.

Launch to space Long March 4B | Feng Yun 1C
Long March 4B | Feng Yun 1C

Agency: N/A

Status: Launch Successful

Launch date: May 10, 1999, 1:33 a.m. UTC

Rocket: Long March 4B

Launch pad: Launch Complex 7

Location: Taiyuan Satellite Launch Center, People's Republic of China

...

Latest news about this satellite

There are no fresh news available about this satellite. Check back as we update our databases every day.


Newsletter sign-up

Weekly statistics, charts and insights to help you stay on top of the space industry.